Location: Saint-Maurice-d�Ard�che
(44.5216°N, 4.4002°E)
Time: 13:33:56
(UTC+00:00)

Cosmos 1992 Rocket - Pass Details

Date: 30 March 2020
Orbit: 759 x 765 km, 74.0° (Epoch: 24 May)

Event Time Altitude Azimuth Distance (km) Brightness Sun altitude
Rises 20:24:18 0° 336° (NNW) 3,230 8.1 -23.6°
Reaches altitude 10° 20:26:41 10° 334° (NNW) 2,300 7.3 -23.9°
Maximum altitude 20:31:51 67° 253° (WSW) 821 4.2 -24.7°
Enters shadow 20:33:02 51° 194° (SSW) 957 4.3 -24.9°
